Simultaneous Nadir Overpasses (SNOs) Predictions

Prediction of SNOs between AQUA and NOAA-19 Satellite Orbit:

Table of predicted SNOs for the next 14.0 days since TLE Epoch: 7/13/2012
Index Date (AQUA) Time (AQUA) AQUA Lat,Lon Date (NOAA-19) Time (NOAA-19) NOAA-19 Lat,Lon Distance(km) Time Diff (sec)
1 07/14/2012 00:56:54 46.06, 18.19 07/14/2012 00:56:30 46.04, 18.33 10.43 24
2 07/14/2012 01:43:59 -54.58,-170.50 07/14/2012 01:45:05 -54.59,-170.48 2.02 66
3 07/16/2012 05:41:11 46.04, -52.89 07/16/2012 05:41:10 46.04, -52.84 3.75 1
4 07/16/2012 06:19:31 -81.33, 178.95 07/16/2012 06:20:44 -80.75,-179.68 68.59 73
5 07/18/2012 10:24:59 47.73,-123.32 07/18/2012 10:25:20 47.73,-123.30 0.84 21
6 07/20/2012 14:20:20 -46.05, -2.68 07/20/2012 14:19:28 -45.99, -2.42 20.96 52
7 07/20/2012 15:08:37 49.98, 166.53 07/20/2012 15:09:20 49.98, 166.52 0.80 43
8 07/22/2012 19:04:35 -46.03, -73.76 07/22/2012 19:04:06 -45.97, -73.59 14.59 29
9 07/22/2012 19:52:12 52.33, 96.49 07/22/2012 19:53:17 52.32, 96.47 1.52 65
10 07/24/2012 23:48:50 -46.04,-144.82 07/24/2012 23:48:43 -46.05,-144.71 8.25 7
11 07/25/2012 00:29:10 76.79, 54.16 07/25/2012 00:30:23 76.48, 55.80 54.19 73
12 07/27/2012 04:32:49 -46.98, 144.47 07/27/2012 04:33:05 -46.97, 144.51 3.00 16




NCC Satellite Simultaneous Nadir Overpasses (SNOs) Prediction Service
